N4XWC Weather Reports


time (UTC)temp
F
wind
direction
speed
knots
gust
knots
rain 1hr
in
rain 24hr
in
rain mn
in
humidity
%
barometer
mb
20260902045723 80 64 1.7 1.7 0.00 0.00 0.00 74 1016.7
20260902045227 80 61 1.7 1.7 0.00 0.00 0.00 75 1016.7
20260902045224 80 61 0.0 0.9 0.00 0.00 0.00 75 1016.7
20260902045155 80 61 1.7 1.7 0.00 0.00 0.00 75 1016.7
20260902044722 80 64 0.0 2.6 0.00 0.00 0.00 75 1016.7
20260902044223 80 64 0.9 1.7 0.00 0.00 0.00 75 1016.7
20260902044157 80 58 1.7 1.7 0.00 0.00 0.00 75 1016.7
20260902043724 80 72 1.7 1.7 0.00 0.00 0.00 75 1016.7
20260902043222 80 83 0.9 1.7 0.00 0.00 0.00 76 1016.7
20260902043158 80 83 0.9 0.9 0.00 0.00 0.00 76 1016.7
20260902042723 80 97 0.0 0.0 0.00 0.00 0.00 76 1016.7
20260902042224 80 97 0.0 0.0 0.00 0.00 0.00 76 1016.7
20260902042155 80 97 0.0 0.0 0.00 0.00 0.00 76 1016.7
20260902041722 80 97 0.0 0.0 0.00 0.00 0.00 76 1016.7
20260902041223 80 97 0.0 0.0 0.00 0.00 0.00 75 1016.9
20260902041156 80 97 0.0 0.0 0.00 0.00 0.00 75 1016.9
20260902040723 81 97 0.0 0.0 0.00 0.00 0.00 74 1016.9
20260902040223 81 97 0.0 0.0 0.00 0.00 0.00 74 1016.9
20260902040156 81 97 0.0 0.0 0.00 0.00 0.00 74 1016.9
20260902035722 81 97 0.9 0.9 0.00 0.00 0.00 73 1016.9
20260902035223 81 97 0.0 0.0 0.00 0.00 0.00 73 1016.9
20260902035156 81 97 0.0 0.0 0.00 0.00 0.00 73 1016.9
20260902034723 81 97 0.0 0.0 0.00 0.00 0.00 73 1016.9
20260902034222 82 97 0.0 0.0 0.00 0.00 0.00 72 1016.8
20260902034157 82 97 0.0 0.0 0.00 0.00 0.00 72 1016.8
20260902033723 82 97 0.0 0.0 0.00 0.00 0.00 72 1016.8
20260902033223 82 97 0.0 0.0 0.00 0.00 0.00 71 1016.8
20260902033156 82 100 0.0 0.0 0.00 0.00 0.00 71 1016.8
20260902032722 82 93 0.0 0.9 0.00 0.00 0.00 71 1016.7
20260902032222 82 97 0.0 0.0 0.00 0.00 0.00 70 1016.7
20260902032155 82 97 0.0 0.0 0.00 0.00 0.00 70 1016.7
20260902031723 83 93 0.0 0.0 0.00 0.00 0.00 70 1016.7
20260902031223 83 82 1.7 1.7 0.00 0.00 0.00 70 1016.9
20260902031156 83 69 0.9 0.9 0.00 0.00 0.00 70 1016.9
20260902030723 83 73 0.0 0.0 0.00 0.00 0.00 69 1016.9
20260902030222 83 73 1.7 2.6 0.00 0.00 0.00 70 1016.9
20260902030157 83 79 0.9 2.6 0.00 0.00 0.00 70 1016.9
20260902025723 83 109 0.0 2.6 0.00 0.00 0.00 69 1016.8
20260902025223 83 89 0.9 2.6 0.00 0.00 0.00 69 1016.8
20260902025156 83 95 2.6 2.6 0.00 0.00 0.00 70 1016.8
20260902024724 83 80 1.7 1.7 0.00 0.00 0.00 70 1016.8
20260902024222 83 65 1.7 1.7 0.00 0.00 0.00 70 1016.8
20260902024155 83 66 0.9 1.7 0.00 0.00 0.00 70 1016.8
20260902023723 83 72 0.9 1.7 0.00 0.00 0.00 70 1016.8
20260902023224 83 75 0.0 0.9 0.00 0.00 0.00 69 1016.8
20260902023156 83 75 1.7 1.7 0.00 0.00 0.00 69 1016.8
20260902022722 83 73 0.9 0.9 0.00 0.00 0.00 69 1016.7
20260902022223 83 54 1.7 1.7 0.00 0.00 0.00 69 1016.7
20260902022155 83 68 0.9 1.7 0.00 0.00 0.00 69 1016.7
20260902021724 83 72 1.7 1.7 0.00 0.00 0.00 69 1016.7
20260902021222 83 51 0.9 1.7 0.00 0.00 0.00 69 1016.8
20260902021155 83 28 0.9 1.7 0.00 0.00 0.00 69 1016.8
20260902020723 83 68 2.6 2.6 0.00 0.00 0.00 69 1016.8
20260902020234 83 71 0.9 1.7 0.00 0.00 0.00 69 1016.8
20260902020222 83 71 0.0 0.9 0.00 0.00 0.00 69 1016.8
20260902020155 83 71 0.9 1.7 0.00 0.00 0.00 69 1016.8
20260902015723 83 56 0.0 0.9 0.00 0.00 0.00 69 1016.6
20260902015224 83 27 0.9 1.7 0.00 0.00 0.00 69 1016.6
20260902015156 83 8 0.9 2.6 0.00 0.00 0.00 69 1016.6
20260902014722 83 20 0.9 1.7 0.00 0.00 0.00 69 1016.6
20260902014223 83 66 0.0 1.7 0.00 0.00 0.00 69 1016.5
20260902014156 83 73 1.7 1.7 0.00 0.00 0.00 69 1016.5
20260902013724 83 49 1.7 1.7 0.00 0.00 0.00 70 1016.5
20260902013223 83 40 0.0 0.9 0.00 0.00 0.00 70 1016.5
20260902013156 83 41 0.0 1.7 0.00 0.00 0.00 70 1016.5
20260902012722 83 20 1.7 1.7 0.00 0.00 0.00 70 1016.3
20260902012223 83 40 0.9 0.9 0.00 0.00 0.00 71 1016.3
20260902012155 83 40 0.0 0.9 0.00 0.00 0.00 71 1016.3
20260902011723 83 66 1.7 1.7 0.00 0.00 0.00 71 1016.3
20260902011222 83 8 1.7 1.7 0.00 0.00 0.00 71 1016.3
20260902011157 83 10 0.9 1.7 0.00 0.00 0.00 71 1016.3
20260902010723 83 3 1.7 2.6 0.00 0.00 0.00 71 1016.3
20260902010223 83 20 0.0 0.9 0.00 0.00 0.00 71 1016.3
20260902010156 83 21 0.0 1.7 0.00 0.00 0.00 71 1016.3
20260902005722 83 4 1.7 1.7 0.00 0.00 0.00 71 1016.2
20260902005222 84 30 1.7 1.7 0.00 0.00 0.00 71 1016.2
20260902005155 84 30 1.7 1.7 0.00 0.00 0.00 71 1016.2
20260902004723 84 31 0.9 1.7 0.00 0.00 0.00 71 1016.2
20260902004224 84 51 0.0 0.9 0.00 0.00 0.00 71 1016.2
20260902004157 84 11 0.9 1.7 0.00 0.00 0.00 71 1016.2
20260902003722 84 28 0.9 2.6 0.00 0.00 0.00 71 1016.2
20260902003223 84 61 2.6 2.6 0.00 0.00 0.00 71 1016.2
20260902003156 84 10 0.9 1.7 0.00 0.00 0.00 71 1016.2
20260902002723 84 7 0.0 0.9 0.00 0.00 0.00 71 1016.2
20260902002223 84 24 1.7 1.7 0.00 0.00 0.00 71 1016.2
20260902002156 84 25 0.9 2.6 0.00 0.00 0.00 71 1016.2
20260902001724 84 25 0.9 1.7 0.00 0.00 0.00 71 1016.2
20260902001222 84 11 1.7 1.7 0.00 0.00 0.00 70 1016.4
20260902001155 84 11 0.9 1.7 0.00 0.00 0.00 70 1016.4
20260902000723 85 11 1.7 2.6 0.00 0.00 0.00 70 1016.4
20260902000222 85 7 0.9 1.7 0.00 0.00 0.00 70 1016.4
20260902000155 85 17 0.9 1.7 0.00 0.00 0.00 70 1016.4
20260901235723 85 6 1.7 1.7 0.00 0.00 0.00 69 1016.4
20260901235223 86 6 0.9 0.9 0.00 0.00 0.00 69 1016.4
20260901235156 86 6 0.9 0.9 0.00 0.00 0.00 69 1016.4
20260901234723 86 6 1.7 1.7 0.00 0.00 0.00 68 1016.4
20260901234223 86 6 1.7 1.7 0.00 0.00 0.00 68 1016.4
20260901234156 86 6 0.9 1.7 0.00 0.00 0.00 68 1016.4
20260901233723 86 6 0.9 1.7 0.00 0.00 0.00 67 1016.4
20260901233222 86 61 0.0 0.9 0.00 0.00 0.00 67 1016.4
20260901233157 86 61 0.0 0.9 0.00 0.00 0.00 67 1016.4
20260901232723 86 61 0.0 0.0 0.00 0.00 0.00 67 1016.5
20260901232223 87 66 0.9 1.7 0.00 0.00 0.00 66 1016.5
20260901232156 87 55 0.9 0.9 0.00 0.00 0.00 66 1016.5
20260901231723 87 11 0.0 0.0 0.00 0.00 0.00 66 1016.5
20260901231222 87 11 0.0 0.9 0.00 0.00 0.00 65 1016.4
20260901231158 87 11 0.0 0.9 0.00 0.00 0.00 65 1016.4
20260901230722 87 11 0.0 0.9 0.00 0.00 0.00 65 1016.4
20260901230223 88 11 0.0 1.7 0.00 0.00 0.00 65 1016.4
20260901230156 88 11 0.9 2.6 0.00 0.00 0.00 65 1016.4
20260901225723 88 13 1.7 1.7 0.00 0.00 0.00 65 1016.2
20260901225223 88 24 0.0 1.7 0.00 0.00 0.00 65 1016.2
20260901225156 88 32 0.9 0.9 0.00 0.00 0.00 65 1016.2
20260901224722 88 18 0.0 0.9 0.00 0.00 0.00 64 1016.2
20260901224222 88 18 0.9 0.9 0.00 0.00 0.00 65 1016.3
20260901224157 88 47 0.0 1.7 0.00 0.00 0.00 65 1016.3
20260901223722 89 357 0.0 0.9 0.00 0.00 0.00 64 1016.3
20260901223223 89 51 0.0 1.7 0.00 0.00 0.00 64 1016.3
20260901223156 89 49 1.7 2.6 0.00 0.00 0.00 62 1016.3
20260901222722 89 76 0.0 1.7 0.00 0.00 0.00 64 1016.2
20260901222223 89 71 1.7 2.6 0.00 0.00 0.00 63 1016.2
20260901222156 89 65 2.6 3.5 0.00 0.00 0.00 63 1016.2
20260901221724 89 72 1.7 1.7 0.00 0.00 0.00 61 1016.2
20260901221222 89 120 1.7 2.6 0.00 0.00 0.00 61 1016.3
20260901221157 89 85 1.7 2.6 0.00 0.00 0.00 61 1016.3
20260901220722 89 109 1.7 2.6 0.00 0.00 0.00 60 1016.3
20260901220223 90 58 1.7 1.7 0.00 0.00 0.00 62 1016.3
20260901220155 90 52 0.0 0.0 0.00 0.00 0.00 61 1016.3
20260901215723 90 58 2.6 2.6 0.00 0.00 0.00 60 1016.3
20260901215222 90 55 0.9 1.7 0.00 0.00 0.00 63 1016.3
20260901215157 90 51 1.7 1.7 0.00 0.00 0.00 63 1016.3
20260901214723 90 68 0.0 0.0 0.00 0.00 0.00 63 1016.3
20260901214223 90 73 0.0 0.0 0.00 0.00 0.00 60 1016.2
20260901214157 90 73 0.0 0.0 0.00 0.00 0.00 60 1016.2
20260901213723 90 75 2.6 2.6 0.00 0.00 0.00 62 1016.2
20260901213223 90 76 0.0 0.0 0.00 0.00 0.00 58 1016.2
20260901213156 90 76 0.0 0.9 0.00 0.00 0.00 58 1016.2
20260901212722 90 4 0.9 2.6 0.00 0.00 0.00 58 1016.4
20260901212224 91 56 0.9 4.3 0.00 0.00 0.00 58 1016.4
20260901212157 91 38 3.5 4.3 0.00 0.00 0.00 58 1016.4
20260901211722 91 0 0.9 1.7 0.00 0.00 0.00 58 1016.4
20260901211232 91 8 1.7 2.6 0.00 0.00 0.00 58 1016.5
20260901211223 91 11 1.7 2.6 0.00 0.00 0.00 58 1016.5
20260901211155 91 8 1.7 2.6 0.00 0.00 0.00 58 1016.5
20260901210723 91 16 2.6 2.6 0.00 0.00 0.00 58 1016.5
20260901210222 92 66 0.9 1.7 0.00 0.00 0.00 56 1016.5
20260901210157 92 62 0.9 1.7 0.00 0.00 0.00 55 1016.5
20260901205723 92 155 3.5 3.5 0.00 0.00 0.00 57 1016.6
20260901205223 92 40 0.9 3.5 0.00 0.00 0.00 58 1016.6
20260901205157 92 0 0.9 1.7 0.00 0.00 0.00 58 1016.6
20260901204723 92 79 0.9 1.7 0.00 0.00 0.00 56 1016.6
20260901204224 92 62 3.5 4.3 0.00 0.00 0.00 54 1016.7
20260901204156 92 51 2.6 4.3 0.00 0.00 0.00 56 1016.7
20260901203724 93 30 1.7 5.2 0.00 0.00 0.00 57 1016.7
20260901203222 93 0 0.0 0.0 0.00 0.00 0.00 56 1016.7
20260901203157 92 0 0.0 0.0 0.00 0.00 0.00 56 1016.7
20260901202723 92 56 0.0 0.9 0.00 0.00 0.00 53 1016.8
20260901202223 92 61 3.5 5.2 0.00 0.00 0.00 56 1016.8
20260901202155 92 13 1.7 4.3 0.00 0.00 0.00 56 1016.8
20260901201723 92 152 0.9 1.7 0.00 0.00 0.00 57 1016.8
20260901201224 92 147 0.0 1.7 0.00 0.00 0.00 53 1017.0
20260901201206 92 143 1.7 2.6 0.00 0.00 0.00 53 1017.0
20260901200723 92 61 0.9 3.5 0.00 0.00 0.00 55 1017.0
20260901200223 92 109 2.6 5.2 0.00 0.00 0.00 54 1017.0
20260901200156 92 110 5.2 5.2 0.00 0.00 0.00 54 1017.0
20260901195724 92 52 0.0 2.6 0.00 0.00 0.00 53 1017.1
20260901195222 92 83 2.6 2.6 0.00 0.00 0.00 52 1017.1
20260901195157 92 79 3.5 3.5 0.00 0.00 0.00 54 1017.1
20260901194723 92 120 0.0 1.7 0.00 0.00 0.00 57 1017.1
20260901194223 92 103 2.6 2.6 0.00 0.00 0.00 57 1017.3
20260901194155 92 123 1.7 1.7 0.00 0.00 0.00 57 1017.3
20260901193723 92 65 0.9 2.6 0.00 0.00 0.00 55 1017.3
20260901193222 92 116 2.6 5.2 0.00 0.00 0.00 55 1017.3
20260901193156 92 96 2.6 2.6 0.00 0.00 0.00 55 1017.3
20260901192722 92 313 0.0 0.9 0.00 0.00 0.00 55 1017.6
20260901192222 91 3 1.7 1.7 0.00 0.00 0.00 53 1017.6
20260901192156 91 51 0.9 4.3 0.00 0.00 0.00 53 1017.6
20260901191723 91 82 1.7 1.7 0.00 0.00 0.00 55 1017.6
20260901191223 91 192 0.0 0.9 0.00 0.00 0.00 61 1017.6
20260901191155 91 176 0.9 1.7 0.00 0.00 0.00 57 1017.6
20260901190723 90 38 0.9 1.7 0.00 0.00 0.00 54 1017.6
20260901190222 90 100 3.5 3.5 0.00 0.00 0.00 59 1017.6
20260901190157 90 119 2.6 2.6 0.00 0.00 0.00 59 1017.6
20260901185722 90 192 1.7 1.7 0.00 0.00 0.00 57 1017.8
20260901185222 90 56 2.6 4.3 0.00 0.00 0.00 59 1017.8
20260901185155 90 103 4.3 5.2 0.00 0.00 0.00 59 1017.8
20260901184723 90 120 0.9 2.6 0.00 0.00 0.00 56 1017.8
20260901184223 91 116 1.7 1.7 0.00 0.00 0.00 60 1017.9
20260901184157 90 172 0.0 0.0 0.00 0.00 0.00 58 1017.9
20260901183723 90 271 0.0 0.9 0.00 0.00 0.00 56 1017.9
20260901183223 91 141 1.7 4.3 0.00 0.00 0.00 58 1017.9
20260901183156 91 88 0.9 2.6 0.00 0.00 0.00 58 1017.9
20260901182724 91 138 2.6 5.2 0.00 0.00 0.00 58 1018.0
20260901182224 91 95 0.0 0.9 0.00 0.00 0.00 60 1018.0
20260901182156 91 95 0.0 2.6 0.00 0.00 0.00 60 1018.0
20260901181722 91 354 2.6 2.6 0.00 0.00 0.00 62 1018.0
20260901181223 90 49 0.9 1.7 0.00 0.00 0.00 58 1018.2
20260901181157 90 65 0.9 2.6 0.00 0.00 0.00 58 1018.2
20260901180723 90 51 0.9 2.6 0.00 0.00 0.00 59 1018.2
20260901180223 90 64 0.9 2.6 0.00 0.00 0.00 63 1018.2
20260901180157 90 90 2.6 2.6 0.00 0.00 0.00 63 1018.2
20260901175724 90 10 0.0 0.0 0.00 0.00 0.00 60 1018.3
20260901175224 90 52 1.7 1.7 0.00 0.00 0.00 60 1018.3
20260901175156 90 52 1.7 4.3 0.00 0.00 0.00 60 1018.3
20260901174722 90 0 0.0 0.0 0.00 0.00 0.00 58 1018.3
20260901174223 90 28 1.7 2.6 0.00 0.00 0.00 58 1018.4
20260901174156 90 1 0.9 2.6 0.00 0.00 0.00 58 1018.4
20260901173722 91 68 2.6 2.6 0.00 0.00 0.00 58 1018.4
20260901173223 91 3 0.0 0.0 0.00 0.00 0.00 64 1018.4
20260901173156 91 3 0.0 0.0 0.00 0.00 0.00 64 1018.4
20260901172723 91 3 0.0 1.7 0.00 0.00 0.00 61 1018.6
20260901172224 91 100 3.5 3.5 0.00 0.00 0.00 57 1018.6
20260901172156 91 127 3.5 5.2 0.00 0.00 0.00 57 1018.6
20260901171722 91 100 1.7 1.7 0.00 0.00 0.00 59 1018.6
20260901171222 91 65 0.0 0.9 0.00 0.00 0.00 62 1018.8
20260901171155 91 103 0.9 0.9 0.00 0.00 0.00 62 1018.8
20260901170723 91 152 0.9 2.6 0.00 0.00 0.00 59 1018.8
20260901170223 90 55 0.0 0.9 0.00 0.00 0.00 58 1018.8
20260901170156 90 55 1.7 1.7 0.00 0.00 0.00 58 1018.8
20260901165723 91 69 2.6 3.5 0.00 0.00 0.00 58 1018.8
20260901165224 90 181 0.9 1.7 0.00 0.00 0.00 58 1018.8
20260901165156 90 152 0.0 0.9 0.00 0.00 0.00 58 1018.8
20260901164722 90 4 1.7 2.6 0.00 0.00 0.00 62 1018.8
20260901164222 90 93 0.0 0.9 0.00 0.00 0.00 63 1018.9
20260901164201 90 93 0.0 0.0 0.00 0.00 0.00 63 1018.9
20260901163722 90 69 1.7 1.7 0.00 0.00 0.00 64 1018.9
20260901163223 90 136 0.0 0.0 0.00 0.00 0.00 62 1018.9
20260901163155 90 136 0.0 0.0 0.00 0.00 0.00 62 1018.9
20260901162722 90 113 1.7 2.6 0.00 0.00 0.00 60 1019.1
20260901162223 90 52 0.9 0.9 0.00 0.00 0.00 63 1019.1
20260901162156 90 76 0.9 1.7 0.00 0.00 0.00 63 1019.1
20260901161723 90 202 0.0 0.0 0.00 0.00 0.00 63 1019.1
20260901161222 90 160 0.0 0.0 0.00 0.00 0.00 62 1019.2
20260901161157 90 160 0.0 0.9 0.00 0.00 0.00 63 1019.2
20260901160722 89 275 0.0 0.0 0.00 0.00 0.00 64 1019.2
20260901160224 89 239 0.0 0.0 0.00 0.00 0.00 64 1019.2
20260901160156 89 219 0.0 0.0 0.00 0.00 0.00 64 1019.2
20260901155722 90 265 0.0 0.0 0.00 0.00 0.00 67 1019.2
20260901155222 90 200 0.9 1.7 0.00 0.00 0.00 67 1019.2
20260901155157 90 196 0.9 0.9 0.00 0.00 0.00 66 1019.2
20260901154723 90 222 0.0 0.9 0.00 0.00 0.00 66 1019.2
20260901154222 89 147 0.0 0.0 0.00 0.00 0.00 67 1019.3
20260901154157 89 147 0.0 0.0 0.00 0.00 0.00 67 1019.3
20260901153722 88 147 0.0 0.9 0.00 0.00 0.00 65 1019.3
20260901153223 88 184 0.9 1.7 0.00 0.00 0.00 71 1019.3
20260901153159 88 106 0.0 0.0 0.00 0.00 0.00 71 1019.3
20260901152723 87 106 0.0 0.0 0.00 0.00 0.00 74 1019.4
20260901152223 87 200 0.0 0.0 0.00 0.00 0.00 74 1019.4
20260901152156 87 200 0.0 0.9 0.00 0.00 0.00 74 1019.4
20260901151724 86 175 0.0 0.9 0.00 0.00 0.00 75 1019.4
20260901151222 86 154 2.6 2.6 0.00 0.00 0.00 74 1019.3
20260901151158 86 161 0.0 0.0 0.00 0.00 0.00 74 1019.3
20260901150722 86 145 0.9 0.9 0.00 0.00 0.00 74 1019.3
20260901150223 86 175 0.0 1.7 0.00 0.00 0.00 74 1019.3
20260901150157 86 162 0.0 0.9 0.00 0.00 0.00 74 1019.3
20260901145722 86 160 0.9 0.9 0.00 0.00 0.00 75 1019.4
20260901145222 85 89 0.0 0.0 0.00 0.00 0.00 76 1019.4
20260901145157 85 134 0.0 0.0 0.00 0.00 0.00 76 1019.4
20260901144723 85 148 0.0 0.0 0.00 0.00 0.00 76 1019.4
20260901144223 85 148 0.0 0.0 0.00 0.00 0.00 75 1019.3
20260901144156 85 148 0.0 0.0 0.00 0.00 0.00 75 1019.3
20260901143723 85 104 0.0 0.9 0.00 0.00 0.00 75 1019.3
20260901143223 86 104 0.9 1.7 0.00 0.00 0.00 73 1019.3
20260901143156 86 169 0.9 1.7 0.00 0.00 0.00 72 1019.3
20260901142724 85 100 1.7 1.7 0.00 0.00 0.00 73 1019.3
20260901142222 85 155 0.9 2.6 0.00 0.00 0.00 73 1019.3
20260901142159 85 124 1.7 1.7 0.00 0.00 0.00 73 1019.3
20260901141722 84 109 0.0 1.7 0.00 0.00 0.00 74 1019.3
20260901141223 84 119 0.9 0.9 0.00 0.00 0.00 74 1019.2
20260901141157 84 119 0.0 0.9 0.00 0.00 0.00 74 1019.2
20260901140723 84 172 0.0 0.0 0.00 0.00 0.00 77 1019.2
20260901140224 84 141 2.6 3.5 0.00 0.00 0.00 77 1019.2
20260901140201 84 112 1.7 2.6 0.00 0.00 0.00 77 1019.2
20260901135722 83 158 0.0 0.0 0.00 0.00 0.00 77 1019.2
20260901135223 83 147 0.9 0.9 0.00 0.00 0.00 80 1019.2
20260901135156 83 174 0.0 0.9 0.00 0.00 0.00 80 1019.2
20260901134724 82 138 0.9 1.7 0.00 0.00 0.00 80 1019.2
20260901134222 82 130 0.0 0.0 0.00 0.00 0.00 80 1019.2
20260901134158 82 130 0.0 0.9 0.00 0.00 0.00 80 1019.2
20260901133722 81 110 0.0 0.9 0.00 0.00 0.00 81 1019.2
20260901133223 81 141 2.6 2.6 0.00 0.00 0.00 82 1019.2
20260901133155 81 131 1.7 1.7 0.00 0.00 0.00 82 1019.2
20260901132723 80 131 0.0 0.9 0.00 0.00 0.00 83 1019.3
20260901132223 80 126 1.7 1.7 0.00 0.00 0.00 83 1019.3
20260901132156 80 171 0.9 1.7 0.00 0.00 0.00 83 1019.3
20260901131723 80 165 0.0 1.7 0.00 0.00 0.00 84 1019.3
20260901131222 79 157 0.0 0.0 0.00 0.00 0.00 84 1019.3
20260901131200 79 157 0.0 0.9 0.00 0.00 0.00 84 1019.3
20260901130722 79 126 0.0 1.7 0.00 0.00 0.00 84 1019.3
20260901130223 78 140 0.9 2.6 0.00 0.00 0.00 85 1019.3
20260901130157 78 102 1.7 1.7 0.00 0.00 0.00 85 1019.3
20260901125724 78 113 0.9 1.7 0.00 0.00 0.00 85 1019.3
20260901125222 78 103 2.6 2.6 0.00 0.00 0.00 85 1019.3
20260901125200 78 93 0.0 1.7 0.00 0.00 0.00 85 1019.3
20260901124722 77 103 0.9 0.9 0.00 0.00 0.00 86 1019.3
20260901124223 77 102 1.7 1.7 0.00 0.00 0.00 86 1019.2
20260901124157 77 104 0.9 0.9 0.00 0.00 0.00 86 1019.2
20260901123723 77 80 0.9 0.9 0.00 0.00 0.00 87 1019.2
20260901123223 76 104 0.9 1.7 0.00 0.00 0.00 87 1019.2
20260901123159 76 99 1.7 1.7 0.00 0.00 0.00 87 1019.2
20260901122724 76 75 0.0 0.9 0.00 0.00 0.00 87 1019.2
20260901122224 76 85 0.9 1.7 0.00 0.00 0.00 87 1019.2
20260901122157 76 103 1.7 1.7 0.00 0.00 0.00 87 1019.2
20260901121722 76 93 1.7 1.7 0.00 0.00 0.00 87 1019.2
20260901121223 76 71 0.9 0.9 0.00 0.00 0.00 87 1018.9
20260901121157 76 79 0.9 1.7 0.00 0.00 0.00 87 1018.9
20260901120723 76 93 0.9 1.7 0.00 0.00 0.00 87 1018.9
20260901120223 76 99 1.7 1.7 0.00 0.00 0.00 87 1018.9
20260901120159 76 93 1.7 1.7 0.00 0.00 0.00 87 1018.9
20260901115723 76 114 0.0 1.7 0.00 0.00 0.00 87 1018.6
20260901115223 76 93 0.9 2.6 0.00 0.00 0.00 87 1018.6
20260901115156 75 95 0.9 1.7 0.00 0.00 0.00 87 1018.6
20260901114724 75 90 0.9 2.6 0.00 0.00 0.00 87 1018.6
20260901114250 75 76 0.9 0.9 0.00 0.00 0.00 87 1018.5
20260901114222 75 102 1.7 1.7 0.00 0.00 0.00 87 1018.5
20260901114157 75 76 0.9 0.9 0.00 0.00 0.00 87 1018.5
20260901113722 75 96 0.0 0.9 0.00 0.00 0.00 87 1018.5
20260901113223 75 90 0.0 1.7 0.00 0.00 0.00 87 1018.5
20260901113156 76 110 0.9 2.6 0.00 0.00 0.00 87 1018.5
20260901112723 76 88 0.9 1.7 0.00 0.00 0.00 87 1018.2
20260901112223 76 109 0.0 0.0 0.00 0.00 0.00 87 1018.2
20260901112156 76 99 0.0 0.0 0.00 0.00 0.00 87 1018.2
20260901111724 76 124 0.0 0.0 0.00 0.00 0.00 86 1018.2
20260901111222 76 110 0.0 0.0 0.00 0.00 0.00 86 1018.0
20260901111157 76 110 0.0 0.0 0.00 0.00 0.00 86 1018.0
20260901110722 76 113 0.0 0.0 0.00 0.00 0.00 86 1018.0
20260901110223 76 112 0.0 0.0 0.00 0.00 0.00 86 1018.0
20260901110157 76 104 0.0 0.0 0.00 0.00 0.00 86 1018.0
20260901105722 76 104 0.0 0.0 0.00 0.00 0.00 86 1017.9
20260901105222 76 92 0.0 0.0 0.00 0.00 0.00 86 1017.9
20260901105158 76 102 0.0 0.0 0.00 0.00 0.00 86 1017.9
20260901104722 76 90 0.0 0.0 0.00 0.00 0.00 86 1017.9
20260901104341 76 109 0.0 0.0 0.00 0.00 0.00 86 1017.9
20260901104223 76 114 0.0 0.0 0.00 0.00 0.00 86 1017.9
20260901104157 76 109 0.0 0.0 0.00 0.00 0.00 86 1017.9
20260901103723 76 103 0.0 0.0 0.00 0.00 0.00 86 1017.9
20260901103224 76 114 0.0 0.0 0.00 0.00 0.00 86 1017.9
20260901103155 76 110 0.0 0.0 0.00 0.00 0.00 86 1017.9
20260901102722 76 112 0.0 0.0 0.00 0.00 0.00 86 1017.9
20260901102222 75 116 0.0 0.0 0.00 0.00 0.00 87 1017.9
20260901102156 75 116 0.0 0.0 0.00 0.00 0.00 87 1017.9
20260901101723 75 138 0.0 0.0 0.00 0.00 0.00 87 1017.9
20260901101223 75 131 0.0 0.0 0.00 0.00 0.00 87 1017.9
20260901101158 75 128 0.0 0.0 0.00 0.00 0.00 87 1017.9
20260901100723 75 126 0.0 0.0 0.00 0.00 0.00 87 1017.9
20260901100224 75 140 0.0 0.0 0.00 0.00 0.00 87 1017.9
20260901100156 75 141 0.0 0.0 0.00 0.00 0.00 87 1017.9
20260901095722 76 126 0.0 0.0 0.00 0.00 0.00 87 1017.7
20260901095222 76 103 0.0 0.0 0.00 0.00 0.00 87 1017.7
20260901095157 76 121 0.0 0.0 0.00 0.00 0.00 87 1017.7
20260901094723 76 117 0.0 0.0 0.00 0.00 0.00 87 1017.7
20260901094223 76 110 0.0 0.0 0.00 0.00 0.00 87 1017.6
20260901094159 76 113 0.0 0.0 0.00 0.00 0.00 87 1017.6
20260901093723 76 116 0.0 0.0 0.00 0.00 0.00 86 1017.6
20260901093224 76 124 0.0 0.0 0.00 0.00 0.00 86 1017.6
20260901093156 76 124 0.0 0.0 0.00 0.00 0.00 86 1017.6
20260901092722 76 124 0.0 0.0 0.00 0.00 0.00 86 1017.5
20260901092222 76 112 0.0 0.0 0.00 0.00 0.00 86 1017.5
20260901092159 76 119 0.0 0.0 0.00 0.00 0.00 86 1017.5
20260901091723 76 110 0.0 0.0 0.00 0.00 0.00 86 1017.5
20260901091223 76 113 0.0 0.0 0.00 0.00 0.00 86 1017.4
20260901091156 76 102 0.0 0.9 0.00 0.00 0.00 86 1017.4
20260901090724 76 93 0.0 0.9 0.00 0.00 0.00 86 1017.4
20260901090222 76 116 1.7 1.7 0.00 0.00 0.00 86 1017.4
20260901090157 76 102 0.9 1.7 0.00 0.00 0.00 86 1017.4
20260901085722 76 100 0.0 0.0 0.00 0.00 0.00 85 1017.4
20260901085223 76 95 0.0 0.9 0.00 0.00 0.00 85 1017.4
20260901085155 76 93 0.0 1.7 0.00 0.00 0.00 85 1017.4
20260901084723 77 107 0.0 0.9 0.00 0.00 0.00 85 1017.4
20260901084223 77 119 0.0 1.7 0.00 0.00 0.00 85 1017.3
20260901084157 77 103 1.7 1.7 0.00 0.00 0.00 85 1017.3
20260901083723 77 86 0.9 1.7 0.00 0.00 0.00 85 1017.3
20260901083222 77 85 1.7 1.7 0.00 0.00 0.00 85 1017.3
20260901083157 77 92 0.9 2.6 0.00 0.00 0.00 85 1017.3
20260901082722 77 119 1.7 2.6 0.00 0.00 0.00 85 1017.1
20260901082222 77 97 0.9 1.7 0.00 0.00 0.00 85 1017.1
20260901082155 77 92 0.0 1.7 0.00 0.00 0.00 85 1017.1
20260901081722 77 95 0.0 0.9 0.00 0.00 0.00 85 1017.1
20260901081222 77 100 1.7 1.7 0.00 0.00 0.00 85 1017.1
20260901081156 77 95 1.7 2.6 0.00 0.00 0.00 85 1017.1
20260901080722 77 78 1.7 2.6 0.00 0.00 0.00 85 1017.1
20260901080223 77 96 2.6 2.6 0.00 0.00 0.00 85 1017.1
20260901080156 77 85 2.6 2.6 0.00 0.00 0.00 85 1017.1
20260901075723 77 93 0.9 1.7 0.00 0.00 0.00 85 1017.1
20260901075223 77 128 1.7 1.7 0.00 0.00 0.00 85 1017.1
20260901075156 77 112 1.7 1.7 0.00 0.00 0.00 85 1017.1
20260901074724 77 119 0.9 2.6 0.00 0.00 0.00 85 1017.1
20260901074223 77 119 0.9 1.7 0.00 0.00 0.00 85 1017.1
20260901074157 77 116 0.0 1.7 0.00 0.00 0.00 85 1017.1
20260901073723 77 102 1.7 1.7 0.00 0.00 0.00 85 1017.1
20260901073224 77 88 0.9 1.7 0.00 0.00 0.00 85 1017.1
20260901073157 77 96 0.9 1.7 0.00 0.00 0.00 85 1017.1
20260901072723 77 104 1.7 1.7 0.00 0.00 0.00 85 1017.0
20260901072223 77 78 0.9 1.7 0.00 0.00 0.00 82 1017.0
20260901072157 77 90 1.7 1.7 0.00 0.00 0.00 82 1017.0
20260901071723 78 93 0.9 0.9 0.00 0.00 0.00 82 1017.0
20260901071223 78 102 0.9 0.9 0.00 0.00 0.00 82 1017.1
20260901071156 78 102 0.9 1.7 0.00 0.00 0.00 82 1017.1
20260901070722 78 78 1.7 1.7 0.00 0.00 0.00 82 1017.1
20260901070543 78 86 1.7 1.7 0.00 0.00 0.00 82 1017.1
20260901070223 78 86 1.7 1.7 0.00 0.00 0.00 82 1017.1
20260901070157 78 86 1.7 1.7 0.00 0.00 0.00 82 1017.1
20260901065723 78 100 0.9 0.9 0.00 0.00 0.00 82 1017.1
20260901065223 78 112 0.0 0.0 0.00 0.00 0.00 82 1017.1
20260901065157 78 112 0.0 1.7 0.00 0.00 0.00 82 1017.1
20260901065034 78 100 0.9 1.7 0.00 0.00 0.00 81 1017.1
20260901064534 78 103 1.7 1.7 0.00 0.00 0.00 81 1017.1
20260901064157 78 93 0.9 0.9 0.00 0.00 0.00 81 1017.2
20260901064034 78 93 0.9 0.9 0.00 0.00 0.00 81 1017.2
20260901063535 78 106 1.7 1.7 0.00 0.00 0.00 81 1017.2
20260901063158 78 93 1.7 1.7 0.00 0.00 0.00 81 1017.2
20260901063038 78 93 1.7 1.7 0.00 0.00 0.00 81 1017.2
20260901062534 78 88 0.9 1.7 0.00 0.00 0.00 82 1017.3
20260901062157 78 106 0.0 1.7 0.00 0.00 0.00 82 1017.3
20260901062033 78 83 0.9 2.6 0.00 0.00 0.00 82 1017.3
20260901061533 78 99 1.7 1.7 0.00 0.00 0.00 82 1017.3
20260901061157 78 75 0.9 1.7 0.00 0.00 0.00 82 1017.2
20260901061033 78 92 1.7 1.7 0.00 0.00 0.00 82 1017.2
20260901060534 78 100 1.7 1.7 0.00 0.00 0.00 81 1017.2
20260901060157 79 90 0.9 0.9 0.00 0.00 0.00 81 1017.2
20260901060035 79 80 0.9 0.9 0.00 0.00 0.00 81 1017.2
20260901055533 79 119 0.0 1.7 0.00 0.00 0.00 81 1017.2
20260901055156 79 79 1.7 1.7 0.00 0.00 0.00 81 1017.2
20260901055034 79 79 1.7 1.7 0.00 0.00 0.00 81 1017.2
20260901054420 79 89 1.7 2.6 0.00 0.00 0.00 81 1017.2
20260901054403 79 96 0.9 1.7 0.00 0.00 0.00 82 1017.2
20260901054157 79 96 0.9 1.7 0.00 0.00 0.00 82 1017.2
20260901053920 79 72 1.7 1.7 0.00 0.00 0.00 82 1017.2
20260901053421 79 92 0.9 2.6 0.00 0.00 0.00 83 1017.2
20260901053157 79 75 1.7 2.6 0.00 0.00 0.00 84 1017.2
20260901052919 79 79 1.7 1.7 0.00 0.00 0.00 84 1017.2
20260901052420 79 85 1.7 1.7 0.00 0.00 0.00 85 1017.3
20260901052155 79 69 0.9 1.7 0.00 0.00 0.00 85 1017.3
20260901051920 79 73 0.9 1.7 0.00 0.00 0.00 84 1017.3
20260901051421 79 90 1.7 1.7 0.00 0.00 0.00 84 1017.3
20260901051156 79 73 0.9 0.9 0.00 0.00 0.00 84 1017.3
20260901050922 79 76 0.9 0.9 0.00 0.00 0.00 84 1017.3
20260901050420 80 109 1.7 1.7 0.00 0.00 0.00 84 1017.3
20260901050158 80 88 2.6 2.6 0.00 0.00 0.00 84 1017.3
20260901045919 80 88 2.6 2.6 0.00 0.00 0.00 84 1017.3